Погода в Протарасе

Кипр     35°00′51″N   34°02′57″E
темп.,
°C
ветер,
м/с
пор.,
м/с
влажн.,
%
обл.,
%
осадки,
мм/ч
давл.,
гПа
погр.,
м
25 февраля, чт
чт2523:00+15ссз22420 0.0 1020108
02:00+15сз22450 0.0 1019110
05:00+15ссз22580 0.0 1019198
08:00+16с34550 0.0 1020461
11:00+17ссз115278 0.0 1021760
14:00+17всв665939 0.0 1020776
17:00+16всв67560 0.0 1021431
20:00+16св66590 0.0 1021527
26 февраля, пт
пт2623:00+15ссв67620 0.0 1022510
02:00+15с78670 0.0 1021405
05:00+14с68700 0.0 1021418
08:00+15ссв67640 0.0 1021589
11:00+15ссв66630 0.0 1022542
14:00+16св55590 0.0 1020534
17:00+16св44580 0.0 1020376
20:00+15с33500 0.0 1020273
27 февраля, сб
сб2723:00+14ссз33540 0.0 1020186
02:00+13ссз33600 0.0 1019192
05:00+13сз34680 0.0 1018160
08:00+14сз33690 0.0 1018164
11:00+16сз12570 0.0 1018542
14:00+16ююв32590 0.0 1017484
17:00+16ююз33600 0.0 1016414
20:00+16ююз34700 0.0 1017434
28 февраля, вс
вс2823:00+15ссз45720 0.0 1017176
02:00+14сз33760 0.0 1016180
05:00+13ссз33790 0.0 1015146
08:00+14сз22760 0.0 1016144
11:00+16ююз22660 0.0 1016598
14:00+16ююз44663 0.0 1015569
17:00+16юз77720 0.1 1014617
20:00+16зюз557520 0.1 1015414
1 марта, пн
пн123:00+14з347533 0.1 1015253
02:00+15зюз677417 0.4 1014707
05:00+14зсз45746 0.2 1012452
08:00+14с9106918 1.1 1013673
11:00+14с11128044 0.2 1013792
14:00+14ссв10117453 0.6 10121031
17:00+14сз685190 0.1 10131056
20:00+13сз675095 0.4 1014691